Regional Weather Roundup
Issued by NWS Charleston, SC

Current Version | Previous Version | Graphics & Text | Print | Product List | Glossary On
Versions: 1 2 3 4 5 6 7 8 9 10 11 12 13 14 15 16 17 18 19 20 21 22 23 24 25 26 27 28 29 30 31 32 33 34 35 36 37 38 39 40 41 42 43 44 45 46 47 48 49 50
000
ASUS42 KCHS 242126
RWRCHS

REGIONAL WEATHER ROUNDUP
NATIONAL WEATHER SERVICE CHARLESTON SC
400 PM EST FRI FEB 24 2017

NOTE: "FAIR" INDICATES FEW OR NO CLOUDS BELOW 12,000 FEET WITH NO
SIGNIFICANT WEATHER AND/OR OBSTRUCTIONS TO VISIBILITY.

NOT ALL STATIONS ARE QUALITY CONTROLLED. USE DATA WITH CAUTION...
ESPECIALLY DEWPOINT OBSERVATIONS.

SCZ027-030-031-034>040-042>050-242200-
...SOUTHEAST SOUTH CAROLINA...

CITY           SKY/WX    TMP DP  RH WIND       PRES   REMARKS
N CHARLESTON   MOSUNNY   78  57  48 SE12      29.82S
WATERFRONT PRK   N/A     71  64  78 E12       29.81F
MOUNT PLEASANT FAIR      73  63  68 E7        29.84R
JOHNS ISLAND   FAIR      73  63  68 E12       29.84S
PINOPOLIS        N/A     70  63  78 NW6       29.75F
MONCKS CORNER  MOCLDY    77  55  47 N5        29.82S
SUMMERVILLE    MOCLDY    79  55  44 NE5       29.82S
BEAUFORT MCAS  MOSUNNY   78  62  57 SE7       29.82F
BEAUFORT ARPT  FAIR      73  61  64 E6        29.83S
HILTON HEAD IS SUNNY     70  63  78 E9        29.85S
WALTERBORO     MOCLDY    79  55  44 S7        29.82F
ALLENDALE      FAIR      79  54  41 CALM      29.81S

...SOUTHERN MIDLANDS AND PEE DEE...

CITY           SKY/WX    TMP DP  RH WIND       PRES   REMARKS
GEORGETOWN     FAIR      72  59  64 E8        29.85S
KINGSTREE      FAIR      75  55  50 E3        29.82S
ORANGEBURG     MOSUNNY   78  54  43 S3        29.82F
BARNWELL       FAIR      81  57  44 E6        29.82S
AIKEN          MOCLDY    79  52  38 S3        29.85F
MANNING        FAIR      77  55  47 MISG      29.81F
COLUMBIA       MOSUNNY   81  53  37 SW5       29.81F
SUMTER         MOSUNNY   80  54  40 SE7       29.80F
FLORENCE       MOSUNNY   77  56  48 SE3       29.82F
MYRTLE BEACH   MOSUNNY   72  61  68 SE12      29.86F
N MYRTLE BEACH SUNNY     72  60  66 E12       29.84F

$$

GAZ063-065-086>088-099>101-113>116-118-119-134>141-150-242200-
...SOUTHEAST GEORGIA...

CITY           SKY/WX    TMP DP  RH WIND       PRES   REMARKS
SAVANNAH ARPT  MOSUNNY   78  58  49 E9        29.82F
HUNTER AAF     SUNNY     77  63  62 E12       29.81S
FORT STEWART   SUNNY     79  59  51 E5        29.80S
STATESBORO     SUNNY     77  63  62 CALM      29.82S
SYLVANIA       MOCLDY   N/A N/A N/A SE5       29.83R
CLAXTON        FAIR      80  60  49 E6        29.82S

...CSRA...CENTRAL AND FAR SOUTHEAST GEORGIA...

CITY           SKY/WX    TMP DP  RH WIND       PRES   REMARKS
THOMSON        MOSUNNY   80  56  44 CALM      29.86F
AUGUSTA-BUSH   MOSUNNY   82  53  36 CALM      29.80F
AUGUSTA-DANIEL SUNNY     80  50  34 VRB3      29.83F
SWAINSBORO     FAIR      79  54  41 SE3       29.83S
VIDALIA        MOSUNNY   81  61  50 S3        29.82S
EASTMAN        FAIR      84  33  16 CALM      29.84S
HAZLEHURST     FAIR      79  60  51 CALM      29.81S
ALMA           MOSUNNY   80  59  48 SE6       29.81S
WAYCROSS       PTSUNNY   84  64  50 SE8       29.80S
JESUP          FAIR      79  59  50 S5        29.82S
BAXLEY         FAIR      81  63  54 SE3       29.81S
BRUNSWICK      SUNNY     75  64  69 E10       29.84S
SAINT SIMONS   SUNNY     73  62  68 NE9       29.83S

$$

SCZ027-028-034-036>038-045-046-048>050-GAZ119-141-242200-
...LAKE AND SUPPLEMENTAL COASTAL OBSERVATIONS...

STATION/POSITION TIME  TEMP    WIND        PRES    WAVE   SWELL
                       AIR SEA DIR/SP/G            HT/PER HT/PER/DIR
                 (UTC) (F)     (DEG/KT/KT) (MB)    (FT/S) (FT/S/D)
WINYAH BAY       2045   69      80/  9     1010.0F
LAKE MURRAY      2050   77     250/  2/  2 1009.5F
ACE BASIN NERRS  2030   76     110/  5     1010.0S
FORT PULASKI     2100   65 63  100/  8/ 10 1010.7
SAPELO ISLAND    2100   74      70/  9     1010.0

$$

ANZ835-935-AMZ111-154-330-350-352-354-370-450-454-472-242200-
...C-MAN AND BUOY OBSERVATIONS...

STATION/POSITION TIME  TEMP    WIND        PRES    WAVE   SWELL
                       AIR SEA DIR/SP/G            HT/PER HT/PER/DIR
                 (UTC) (F)     (DEG/KT/KT) (MB)    (FT/S) (FT/S/D)
BUOY 41004       2050   69 71   20/ 12/ 14 1009.5F   8/11   7/120/11
BUOY 41008       2050   64 63   20/  8/  8 1009.9F   5/11   5/ 90/11
FOLLY BEACH CMAN 2100   65      80/ 10/ 11 1011.0F
CAPERS NEARSHORE 2108   63 61   80/ 10/ 12 1010.2F
FRIPP NEARSHORE  2108   64 62   80/  8/ 10 1010.1F


STATION/POSITION TIME  TEMP    WIND        PRES    WAVE   SWELL
                       AIR SEA DIR/SP/G            HT/PER HT/PER/DIR
                 (UTC) (F)     (DEG/KT/KT) (MB)    (FT/S) (FT/S/D)
5E ST. MARYS GA  2100      65                N/A     6/10   3/100/11
FRYING PAN BUOY  2110   70 72   30/ 12/ 14 1009.9
BUOY 41025       2050   72 76  110/ 14/ 17 1010.9F   7/ 9   7/130/ 9
CAPE LOOKOUT NC  2100   68      70/  5/  6 1010.8F
BUOY 41002       2050   70 70   60/ 12/ 14 1006.5R  11/11  10/110/11
BUOY 41010       NOT AVBL
ST AUGUSTINE FL  2100   66 68  360/  9/ 10 1010.4F


$$



USA.gov is the U.S. government's official web portal to all federal, state and local government web resources and services.